Location: Washington
(38.8950°N, 77.0367°W)
Time: 23:57:42
(UTC-05:00)

N. Korean satellite - Visible Passes

Search period start: 09 December 2016 00:00
Search period end: 19 December 2016 00:00
Orbit: 462 x 521 km, 97.2° (Epoch: 09 December)

Date Brightness Start Highest point End Pass type
(mag) Time Alt. Az. Time Alt. Az. Time Alt. Az.
09 Dec 9.9 06:24:33 10° ENE 06:26:08 13° E 06:27:43 10° ESE visible
09 Dec 6.4 18:31:43 10° SSE 18:40:35 - N 18:35:18 74° E visible
10 Dec 7.1 18:09:55 10° SE 18:18:21 - N 18:13:00 35° E visible
10 Dec 9.9 19:45:31 10° WSW 19:46:59 12° W 19:47:30 12° W visible
11 Dec 8.0 17:48:36 10° ESE 17:56:04 - N 17:50:42 19° E visible
11 Dec 9.0 19:21:47 10° SSW 19:24:42 22° W 19:25:12 22° W visible
12 Dec 7.7 18:59:00 10° S 19:02:28 44° W 19:02:55 41° WNW visible
13 Dec 9.7 06:29:03 10° ENE 06:31:07 15° E 06:33:09 10° SE visible
13 Dec 6.4 18:36:41 10° SSE 18:40:17 88° ENE 18:40:38 71° N visible
14 Dec 6.8 18:14:46 10° SE 18:18:10 42° ENE 18:18:22 41° ENE visible
15 Dec 7.7 17:53:17 10° ESE 17:56:06 22° ENE 17:56:08 22° ENE visible
15 Dec 9.2 19:27:00 10° SW 19:29:37 19° W 19:30:39 17° WNW visible
16 Dec 8.4 17:32:40 10° E 17:33:54 12° ENE 17:33:54 12° ENE visible
16 Dec 8.0 19:04:01 10° SSW 19:07:21 37° W 19:08:25 29° WNW visible
17 Dec 9.6 06:33:36 10° NE 06:36:00 17° E 06:38:25 10° SE visible
17 Dec 6.5 18:41:35 10° S 18:45:08 78° WSW 18:46:13 42° NNW visible
18 Dec 6.6 18:19:33 10° SSE 18:22:59 49° ENE 18:24:04 35° NNE visible
